User: anonymous   Login
Location: Caltech
(34.1382°N, 118.1253°W)
Time: 15:13:43
(UTC-07:00)
Language:

Meteor 1-11 Rocket - Orbit

View from above orbital plane
View from above orbital plane
View from above satellite
View from above satellite

Ground track
Ground track

The orbit data is extracted from the following two-line orbital elements,

1 05918U 72022B   15116.37964115  .00000050  00000-0  22989-4 0  9995
2 05918 081.2393 003.1173 0058686 007.5880 352.6162 14.05767449208010
Epoch (UTC): 26 April 2015 09:06:40
Eccentricity: 0.0058686
inclination: 81.2393°
perigee height: 831 km
apogee height: 916 km
right ascension of ascending node: 3.1173°
argument of perigee: 7.5880°
revolutions per day: 14.05767449
mean anomaly at epoch: 352.6162°
orbit number at epoch: 20801

The dashed part of the orbit path shows where the satellite is in the earth's shadow,  

DLR